RH
22 51 92 91 91 92 93 93 93 92 90 90 91 91 92 92 92 93 92 91 89 87 82 81 82 81 77 74 81 85 88 90 90 88 86 82 80 81 80 83 78 59 85
25 49 93 92 92 92 93 94 93 91 90 90 91 92 92 92 93 93 92 91 90 86 81 82 82 78 78 84 89 90 91 91 90 89 85 80 80 79 77 79 75 72 86
30 49 67 92 92 92 93 93 92 90 90 90 92 92 92 92 93 93 92 91 89 86 80 80 80 79 82 90 90 92 91 90 90 88 85 57 58 79 79 86 87 86 86
32 44 52 93 92 92 94 94 92 91 90 91 91 92 92 92 93 93 93 91 89 86 80 80 79 82 88 91 92 92 91 90 88 86 62 59 52 81 81 84 85 84 85
34 38 50 92 92 92 93 94 94 93 92 92 92 92 91 91 92 92 93 92 90 87 81 77 82 88 91 92 92 92 91 89 88 75 54 61 64 74 81 83 84 86 82
34 35 82 94 93 91 92 94 95 95 94 93 92 91 91 91 91 92 92 91 90 88 84 83 88 91 92 93 93 92 91 89 91 50 50 62 62 80 81 81 82 88 88
37 39 63 95 94 91 91 93 95 96 95 94 93 92 91 91 92 93 92 92 91 89 87 90 92 92 93 94 93 92 91 90 57 44 49 56 65 82 77 83 88 88 88
41 42 61 90 94 92 92 93 95 96 96 95 94 93 93 93 94 93 92 92 92 91 92 94 92 93 94 94 94 93 92 91 58 43 55 65 83 81 76 82 84 89 90
50 49 66 70 77 97 95 94 95 95 96 96 95 95 95 95 94 93 93 93 93 93 94 93 93 94 94 94 94 94 93 90 60 41 54 62 86 81 78 83 85 89 90
55 56 62 68 65 65 66 95 94 95 95 96 95 96 97 96 94 94 94 94 92 91 92 93 94 94 94 94 95 95 94 91 57 47 41 48 86 80 78 81 83 88 89
60 67 73 71 68 59 56 68 91 94 94 96 92 97 93 66 71 76 78 92 94 92 92 94 94 95 95 95 95 95 94 50 43 43 37 86 84 79 80 84 87 88 88
34 65 80 83 77 62 46 62 62 59 59 62 62 71 66 59 61 52 67 94 95 95 95 95 95 95 94 61 70 90 60 49 50 48 66 88 84 78 78 83 86 86 86
21 44 69 83 83 78 59 50 52 51 54 57 60 59 61 54 56 54 56 64 70 90 76 80 80 68 63 50 48 55 52 53 55 52 77 89 85 78 76 80 85 82 84
17 34 54 67 76 78 64 50 49 44 50 51 54 65 60 55 62 57 52 58 66 60 65 65 62 62 58 54 66 57 52 62 56 57 83 92 88 82 76 80 82 81 82
15 22 41 57 67 73 76 63 67 60 49 50 51 58 54 51 60 57 50 52 59 51 61 62 65 60 61 54 54 58 60 56 60 48 64 93 90 88 80 78 80 80 82
14 15 20 29 56 66 70 70 70 65 52 58 54 58 63 54 61 52 52 44 46 45 57 57 61 71 67 61 63 57 60 52 62 61 65 72 93 92 90 84 81 79 80
11 13 17 24 31 51 65 61 67 58 56 49 53 68 80 66 62 64 64 48 43 43 65 61 64 69 77 69 64 60 56 55 64 63 53 63 72 97 96 90 85 87 83
9 12 15 15 23 33 45 50 55 55 57 50 50 57 71 79 63 63 74 63 48 47 54 72 69 66 78 75 70 64 66 59 62 60 50 64 74 69 90 96 93 92 88
14 21 24 29 29 30 36 44 52 59 56 51 49 54 62 70 71 61 62 74 65 51 58 64 76 73 70 65 69 75 68 61 61 54 57 65 71 61 59 94 94 91 92
31 34 35 34 39 39 32 38 40 47 51 58 52 49 59 60 69 69 57 70 74 66 68 65 72 74 71 67 63 63 73 71 61 59 57 60 57 65 58 67 78 90 96
38 40 38 42 44 41 38 27 31 47 49 52 58 54 54 55 63 68 60 65 74 78 80 78 70 75 78 74 77 70 77 74 71 61 50 47 62 62 69 74 77 85 96
41 43 45 44 43 43 38 36 30 30 36 44 49 55 56 56 60 62 64 57 73 76 88 85 83 82 73 74 76 81 88 80 66 59 52 49 58 54 67 70 73 82 87
41 45 45 46 46 47 48 43 39 39 35 43 53 54 55 57 60 65 64 61 62 74 78 86 88 86 90 85 72 68 71 60 51 60 66 63 68 77 63 76 81 83 88
40 43 45 47 49 48 50 50 52 44 37 33 47 54 53 60 60 62 66 66 67 74 78 82 82 86 86 92 89 68 61 45 47 55 66 64 60 72 74 79 86 85 86
39 43 48 51 52 51 53 58 58 56 47 42 40 54 59 61 64 63 67 70 73 76 78 81 86 89 84 81 86 76 70 61 60 58 68 68 58 60 63 72 77 87 85
43 47 52 54 53 54 57 61 67 69 61 53 50 47 60 61 63 69 69 75 78 80 80 79 85 87 87 84 83 74 71 70 61 69 69 66 74 65 55 60 85 86 87
Wind_Speed
3 17 15 12 10 10 11 11 12 13 13 13 12 11 10 10 10 9 9 9 9 10 11 12 10 9 8 7 7 8 9 9 10 10 11 13 13 12 11 7 10 16 14
11 18 15 13 12 12 11 12 13 14 15 14 13 11 11 10 10 10 9 9 8 9 11 11 10 9 8 9 8 8 9 9 10 9 11 13 13 11 9 5 12 14 14
8 15 17 15 14 14 13 13 13 15 15 15 14 13 12 12 10 10 9 9 9 9 10 10 11 10 9 10 9 9 10 9 10 10 11 10 12 10 9 14 16 14 15
5 13 16 12 15 16 14 15 15 16 16 15 15 14 14 13 12 11 10 9 9 9 9 9 13 11 10 10 10 10 9 9 10 10 7 6 12 10 13 15 15 16 16
5 11 14 12 13 15 15 15 15 15 15 15 15 15 15 14 14 12 10 10 9 9 9 10 11 11 10 10 10 10 9 9 10 9 8 6 7 11 13 14 15 16 15
4 10 19 11 9 14 15 15 14 14 15 15 15 16 15 14 14 12 11 10 9 9 8 9 10 10 11 11 10 10 10 10 12 12 11 8 5 13 12 11 11 15 16
3 9 14 11 8 10 13 14 14 14 14 15 15 15 15 15 14 12 11 10 9 8 8 9 8 9 11 11 11 10 9 12 12 4 8 8 8 13 12 14 16 15 15
2 7 13 9 5 7 9 10 12 13 13 12 14 14 14 14 13 13 12 10 10 9 9 9 9 9 9 10 11 10 8 9 13 8 3 4 12 12 13 13 15 16 14
3 6 10 11 11 4 6 7 7 10 12 12 12 13 12 12 11 12 12 11 10 9 10 9 9 9 8 9 9 8 6 10 11 7 6 3 11 12 14 15 15 15 14
3 6 8 9 13 13 11 6 6 8 10 11 11 11 10 9 10 11 10 10 10 9 10 10 9 9 9 8 7 7 4 8 12 8 6 8 13 13 15 15 15 15 15
3 3 2 10 10 14 13 11 8 7 7 8 9 8 10 10 12 13 12 13 10 9 10 10 10 10 9 7 6 6 6 7 9 2 4 20 16 15 15 14 15 16 16
3 8 5 7 8 11 12 13 12 11 10 11 12 13 11 12 11 12 13 11 10 10 9 10 10 10 10 9 7 6 7 9 4 2 6 14 13 14 13 14 14 15 15
8 7 11 8 8 8 10 10 8 9 9 9 14 13 12 10 9 10 8 9 9 9 8 9 9 9 12 9 10 9 9 8 3 1 8 13 13 13 15 15 15 15 15
7 4 11 11 11 12 10 8 9 10 10 9 12 13 10 8 7 10 8 10 9 10 11 11 8 11 12 10 6 9 10 4 3 2 9 8 11 12 14 15 16 16 14
5 4 4 10 10 10 12 8 9 9 10 10 11 13 11 12 10 11 10 10 9 11 9 10 9 9 9 11 8 8 6 6 4 2 3 10 10 9 13 17 17 16 17
7 5 4 7 10 11 11 11 9 10 10 11 12 11 14 10 8 10 11 11 12 11 9 10 10 8 6 8 10 9 9 9 5 4 5 7 10 9 9 15 17 17 18
9 9 5 5 9 10 13 13 9 11 11 10 11 13 11 14 13 12 10 10 10 10 10 10 11 8 7 8 10 10 10 10 4 3 6 5 9 9 7 12 15 15 17
10 10 8 6 8 10 11 11 10 11 9 11 10 12 16 16 16 13 10 11 10 9 10 6 9 9 7 7 7 8 7 9 8 7 9 3 6 7 8 7 6 12 10
13 15 12 11 13 11 11 11 13 12 12 11 10 12 15 19 19 14 12 10 11 9 9 9 7 9 10 10 7 6 7 8 9 9 11 6 4 4 6 11 10 9 10
15 15 15 12 12 12 10 10 11 11 12 10 11 11 17 16 18 16 12 13 11 10 8 11 12 9 9 8 8 9 7 7 8 8 10 8 9 9 7 8 7 8 10
15 16 16 14 13 10 10 9 11 12 12 11 12 15 16 16 18 18 14 15 15 13 12 12 13 12 8 7 7 7 6 7 9 9 11 8 7 9 11 9 8 6 7
15 16 16 16 14 12 10 11 10 11 12 12 12 14 16 17 17 17 17 14 17 13 13 13 13 10 10 10 9 5 4 5 10 11 10 9 10 8 9 12 12 11 9
16 15 15 17 17 14 14 12 12 13 12 12 13 13 15 17 18 19 20 16 15 13 13 14 13 13 10 8 13 7 6 8 7 9 13 10 10 8 9 9 10 11 11
17 16 15 16 17 16 15 13 16 14 15 12 12 13 13 18 18 19 19 18 15 13 15 15 13 13 10 10 8 11 12 7 6 7 5 9 11 9 11 8 9 11 11
18 17 17 17 17 17 15 15 13 16 14 14 13 17 18 14 20 18 19 17 16 13 16 16 15 16 12 10 10 10 13 11 10 10 6 7 8 9 9 10 10 8 11
19 18 19 19 17 17 16 16 17 19 18 16 16 14 13 13 13 18 19 16 15 15 15 15 15 17 13 12 10 12 10 12 11 8 9 9 9 9 9 8 8 9 9
Wind_Direction
76 137 142 143 139 133 130 136 144 143 144 145 145 146 139 140 141 141 139 136 135 146 150 152 154 150 150 143 121 103 99 99 97 101 105 107 109 112 121 137 145 109 112
317 150 147 149 146 140 138 140 146 148 149 148 147 148 144 147 147 149 148 139 140 155 155 154 157 157 159 141 119 115 111 116 113 114 121 118 113 121 127 161 93 110 113
287 146 164 156 150 144 144 145 148 151 151 150 150 151 150 151 152 153 150 141 145 149 155 165 164 157 146 135 127 129 129 133 132 145 169 141 122 125 112 100 104 118 113
258 146 181 163 153 147 149 150 152 153 152 152 153 155 155 159 158 157 151 149 153 157 160 163 162 150 138 128 133 135 137 138 147 168 178 130 133 126 121 119 122 122 117
221 160 169 162 158 151 151 151 151 149 151 153 157 161 162 164 162 159 153 154 156 160 161 161 160 142 132 130 137 139 141 153 173 189 149 121 135 131 134 136 139 132 137
220 170 131 147 171 157 153 149 145 145 151 155 160 163 166 166 164 158 156 159 164 165 166 155 151 143 138 138 140 143 152 179 194 180 146 125 155 135 145 149 122 113 115
196 136 142 144 182 164 154 149 148 151 152 158 160 163 167 165 163 157 159 162 166 165 162 142 147 145 143 145 145 149 171 214 213 111 92 132 129 145 152 133 125 125 123
244 182 130 144 169 170 157 151 151 151 152 158 160 163 164 163 160 158 162 168 167 162 145 142 149 148 148 151 149 157 186 237 220 106 141 109 132 150 153 143 135 130 125
270 208 129 173 179 159 141 145 156 155 155 160 160 160 159 158 159 163 164 171 172 160 154 152 155 154 155 153 156 160 188 247 273 138 152 157 148 160 157 149 141 136 135
285 212 161 185 184 186 182 139 162 170 162 161 162 155 151 155 162 166 165 172 183 174 162 158 161 161 158 156 159 159 184 270 267 143 179 160 154 169 167 159 155 147 142
150 258 123 181 202 190 183 170 174 178 165 155 157 148 154 190 184 176 195 164 180 177 169 164 168 166 159 148 150 158 188 224 239 228 171 141 152 175 179 167 159 156 149
230 179 186 175 201 209 198 165 193 189 197 194 189 180 199 204 187 201 184 173 169 176 172 173 173 164 179 179 172 169 216 243 241 225 116 132 154 177 183 172 164 157 150
306 169 184 186 181 197 230 177 192 191 202 202 199 192 203 202 184 213 182 182 197 179 188 184 177 198 201 201 179 191 214 244 251 231 117 135 164 183 183 179 168 157 156
304 288 172 198 186 194 213 200 201 200 190 203 204 201 195 208 188 213 193 201 195 187 204 190 191 205 203 231 149 193 215 233 243 186 120 139 165 185 193 189 186 169 168
313 288 322 185 207 199 208 196 207 224 195 216 200 197 212 202 185 216 205 189 199 197 198 193 195 206 211 215 215 191 226 239 256 248 95 158 165 185 204 202 204 181 180
288 278 271 269 205 220 204 220 203 216 217 191 212 214 216 213 200 218 215 220 197 197 200 194 197 191 201 212 218 210 214 226 239 223 150 165 170 182 213 207 207 202 195
284 272 243 276 266 238 234 217 218 227 226 211 206 180 209 230 198 191 233 230 214 201 197 187 197 185 200 211 217 210 225 220 231 246 255 174 173 186 212 216 206 214 228
298 303 309 315 297 273 249 239 225 223 228 231 201 207 195 211 228 191 195 233 219 221 186 191 197 193 191 206 207 218 209 224 220 214 233 239 167 201 178 182 190 186 205
339 337 327 321 300 281 265 249 233 227 226 223 228 198 206 202 212 225 199 206 229 225 190 200 207 188 203 203 205 200 217 227 216 215 225 212 242 245 189 163 166 177 190
332 325 321 310 316 309 289 270 249 231 229 222 231 216 210 204 201 210 213 201 206 225 208 201 205 202 207 202 197 203 209 226 236 222 221 209 218 207 222 187 182 177 182
326 324 319 321 314 305 295 264 246 229 233 221 221 226 211 212 198 203 209 200 195 203 206 205 204 203 205 188 201 216 206 216 219 228 235 225 211 201 197 216 196 195 194
325 322 319 314 313 309 301 291 282 274 235 220 226 222 219 212 201 201 208 205 189 196 198 206 214 205 202 183 194 174 200 235 239 234 240 240 225 223 205 208 215 208 199
321 319 316 314 312 305 306 294 279 273 265 245 214 235 221 221 204 206 207 206 201 192 194 199 202 202 199 208 200 184 204 231 215 202 215 229 211 217 230 210 211 216 205
321 317 316 315 310 305 305 289 279 274 273 245 228 215 237 212 215 208 211 209 202 194 196 196 198 200 196 197 205 221 246 258 227 207 193 206 225 210 217 222 213 213 207
326 324 317 313 305 301 303 297 286 275 273 274 272 216 210 222 219 215 211 209 203 198 203 196 196 200 198 202 203 210 226 238 248 268 222 199 217 220 222 224 220 218 208
327 324 320 313 303 306 299 294 284 280 276 273 275 272 207 214 219 221 214 207 201 200 202 200 196 200 199 204 203 209 210 222 229 215 242 255 206 205 214 219 195 213 209